Temp
3 3 2 3 3 3 2 3 3 3 3 3 3 3 3 2 2 2 2 2 3 2 2 2 1 1 1 1 2 0 -1 1 2 2 2 1 1 1 1 2 2 2 3 4 4 5 6
2 3 2 2 3 3 3 2 3 3 3 3 3 3 3 2 2 2 2 2 3 2 2 2 1 1 1 1 1 0 -1 -0 -1 0 0 -0 0 0 0 1 3 3 3 4 4 5 5
2 2 2 2 2 3 3 3 3 3 3 3 3 3 2 2 2 1 1 2 2 2 1 1 0 -0 -0 1 0 0 -2 -1 -1 -1 -1 -1 -0 -1 -0 0 1 2 3 3 4 5 5
1 1 2 2 2 2 2 3 2 3 3 3 2 2 2 2 1 1 1 1 2 1 -1 -1 -1 -2 -1 0 -1 0 -2 -1 -1 -1 -2 -1 -1 -2 -1 0 1 2 3 3 4 4 5
0 1 1 1 2 2 2 2 2 2 2 2 2 2 2 1 1 1 1 0 -0 -0 -2 -3 -2 -3 -2 0 -0 -1 -2 -2 -2 -2 -2 -2 -2 -2 -1 -0 0 1 2 3 4 4 4
-1 -1 -0 0 1 1 2 2 2 2 2 2 2 2 1 1 1 1 0 -0 -0 -1 -2 -3 -3 -3 -2 -0 -1 -2 -2 -2 -2 -2 -3 -3 -3 -2 -1 -1 -0 1 2 3 4 5 5
-2 -1 -1 -1 -0 1 1 1 2 2 1 1 1 1 1 1 1 -0 -0 -1 -1 -2 -3 -2 -3 -3 -3 -1 -1 -1 -2 -3 -3 -3 -3 -3 -3 -2 -1 0 1 1 2 3 4 5 5
-2 -3 -2 -2 -1 -0 0 1 1 1 1 1 1 1 0 0 0 -0 -0 -1 -1 -2 -3 -3 -3 -3 -4 -3 -3 -3 -3 -3 -3 -3 -3 -4 -3 1 -1 -1 -1 0 1 2 4 5 5
-3 -3 -2 -2 -2 -1 -0 0 1 1 1 1 0 0 -0 -0 -0 -0 -1 -1 -2 -2 -4 -4 -3 -4 -3 -4 -4 -3 -3 -3 -3 -4 -5 -4 1 -1 -3 -2 -1 -1 0 2 3 5 5
-3 -3 -3 -2 -2 -2 -3 -1 -0 0 -0 -0 0 -0 -1 -1 -1 -1 -1 -2 -2 -3 -4 -4 -3 -3 -4 -4 -4 -3 -4 -4 -4 -4 -4 -4 -2 -3 -2 -2 -1 -0 1 1 2 3 4
-5 -4 -4 -4 -3 -2 -3 -3 -3 -2 -3 -2 -0 -0 -1 -1 -1 -1 -2 -2 -3 -4 -4 -3 -4 -4 -3 -4 -4 -3 -4 -4 -5 -4 -4 -3 -3 -3 -2 -2 -1 -0 0 1 1 2 4
-8 -7 -5 -5 -4 -3 -3 -3 -3 -3 -3 -3 -2 -1 -1 -1 -2 -2 -2 -3 -4 -4 -4 -3 -4 -3 -4 -4 -4 -4 -4 -5 -4 -4 -4 -4 -3 -3 -2 -2 -1 -0 0 1 1 1 3
-9 -8 -7 -5 -6 -4 -4 -3 -4 -3 -3 -3 -3 -2 -2 -2 -2 -3 -3 -4 -4 -4 -3 -4 -3 -3 -4 -4 -5 -4 -5 -5 -5 -5 -4 -4 -3 -3 -2 -3 -2 -1 -0 0 1 1 3
-9 -9 -8 -7 -6 -5 -4 -3 -4 -3 -3 -3 -3 -3 -3 -3 -3 -3 -4 -5 -4 -2 -3 -3 -3 -4 -4 -4 -4 -5 -5 -5 -5 -4 -4 -4 -3 -2 -3 -2 -1 -1 -0 0 2 2 5
-10 -9 -8 -8 -6 -4 -4 -4 -4 -3 -2 -2 -3 -2 -3 -3 -3 -4 -4 -5 -3 -3 -3 -3 -3 -4 -5 -5 -4 -5 -5 -4 -4 -4 -4 -3 -3 -3 -2 -2 -1 -1 -1 1 1 8 6
-10 -9 -8 -7 -6 -4 -4 -4 -4 -3 -2 -3 -2 -2 -2 -2 -3 -3 -5 -4 -4 -3 -3 -3 -4 -4 -4 -4 -5 -5 -4 -4 -3 -4 -4 -3 -3 -1 -2 -2 -1 -0 1 -0 1 5 5
-10 -10 -8 -8 -6 -5 -4 -4 -3 -2 -3 -3 -2 -2 -2 -2 -3 -4 -5 -4 -4 -4 -3 -3 -2 -3 -3 -3 -4 -4 -3 -3 -3 -3 -4 -4 -4 -2 -1 -1 -0 -0 -0 1 2 7 6
-10 -10 -8 -8 -6 -6 -4 -4 -3 -2 -2 -3 -2 -2 -2 -2 -4 -4 -4 -4 -3 -3 -2 -3 -3 -3 -2 -3 -4 -3 -4 -3 -2 -3 -3 -4 -3 -2 -0 0 0 1 1 2 7 6 7
-10 -10 -9 -8 -7 -5 -4 -3 -3 -3 -3 -3 -3 -2 -3 -3 -3 -3 -3 -3 -3 -3 -3 -3 -2 -2 -1 -1 -2 -2 -3 -2 -2 -3 -2 -2 -3 -1 -0 -0 0 -0 2 4 4 6 6
-10 -10 -9 -8 -8 -5 -3 -3 -2 -3 -3 -3 -3 -2 -3 -3 -3 -3 -3 -3 -3 -2 -2 -2 -2 -2 -2 -1 -1 -2 -2 -1 -1 -1 -1 -2 -1 -1 1 2 2 1 3 5 4 5 7
-11 -11 -10 -9 -8 -5 -4 -3 -3 -3 -4 -3 -2 -2 -2 -3 -2 -3 -3 -2 -2 -2 -2 -2 -2 -3 -2 -2 -2 -2 -1 -1 -1 -1 -3 -2 -1 -1 3 4 3 3 4 4 4 5 6
-11 -11 -10 -9 -8 -5 -4 -3 -3 -4 -4 -3 -2 -3 -2 -3 -3 -3 -3 -2 -2 -2 -2 -2 -1 -1 -1 -2 -1 -1 -1 -1 -1 -2 -2 -2 -1 2 3 3 3 3 4 4 4 4 5
-11 -10 -10 -10 -9 -6 -4 -3 -3 -4 -4 -3 -3 -3 -2 -3 -3 -3 -3 -2 -2 -2 -2 -2 -2 -2 -1 -1 -1 -2 -1 -0 -0 -0 -1 -2 0 2 2 3 3 4 4 3 4 3 4
-11 -11 -10 -10 -9 -6 -4 -3 -4 -4 -4 -3 -3 -3 -2 -2 -3 -2 -2 -2 -2 -2 -2 -2 -2 -2 -1 -1 -1 -2 -1 -0 -1 -1 -0 1 1 1 2 3 1 4 5 4 4 4 4
-11 -11 -11 -10 -9 -4 -4 -3 -4 -4 -4 -3 -3 -3 -3 -2 -2 -2 -2 -3 -3 -2 -2 -2 -1 -1 -1 -0 -1 -1 -1 -0 -0 -0 -0 -0 1 0 1 2 3 4 4 4 4 4 4
-12 -11 -11 -10 -9 -7 -5 -3 -4 -4 -4 -4 -3 -3 -3 -3 -2 -2 -2 -3 -3 -2 -2 -2 -1 -1 -1 -1 -1 -1 -1 -1 -1 -1 -0 -1 -1 0 1 2 3 4 4 4 4 4 4
-12 -12 -11 -11 -7 -5 -5 -4 -4 -4 -4 -4 -3 -3 -3 -3 -2 -3 -3 -3 -2 -2 -2 -1 -1 -1 -1 -1 -1 -1 -1 -0 -0 -1 -1 -0 -1 -1 0 1 3 3 4 4 4 4 5
-12 -12 -11 -10 -7 -4 -5 -4 -4 -4 -4 -3 -3 -3 -3 -2 -2 -2 -3 -2 -2 -2 -2 -1 -1 -1 -1 -1 -1 0 -0 0 0 0 -0 -1 -1 -1 -1 -0 0 3 3 4 4 4 4
-12 -12 -12 -11 -10 -7 -5 -4 -3 -3 -3 -3 -3 -3 -3 -2 -3 -2 -2 -3 -2 -2 -2 -1 -1 -1 -1 -1 -1 -0 0 0 1 -1 -1 -0 -0 -0 0 0 2 3 3 3 4 4 4
Height
3072 3072 3071 3070 3070 3070 3070 3069 3068 3067 3065 3065 3064 3065 3065 3064 3062 3061 3060 3060 3060 3058 3056 3057 3059 3060 3061 3060 3062 3061 3064 3069 3071 3071 3074 3078 3082 3086 3086 3091 3098 3096 3100 3105 3108 3109 3109
3065 3065 3064 3064 3064 3063 3064 3065 3064 3063 3061 3060 3059 3059 3059 3059 3058 3057 3056 3056 3054 3052 3051 3052 3053 3054 3054 3053 3060 3060 3058 3063 3067 3068 3069 3073 3077 3082 3083 3087 3090 3093 3097 3098 3101 3104 3105
3057 3057 3057 3057 3057 3057 3057 3057 3058 3058 3057 3056 3054 3053 3053 3054 3053 3053 3052 3053 3051 3048 3047 3047 3047 3048 3045 3051 3052 3055 3052 3057 3061 3063 3066 3070 3074 3076 3081 3083 3084 3086 3090 3094 3094 3096 3099
3050 3049 3049 3049 3049 3050 3050 3050 3051 3052 3051 3051 3050 3048 3047 3048 3049 3048 3048 3048 3047 3046 3043 3042 3042 3041 3036 3047 3045 3048 3047 3053 3057 3059 3061 3066 3069 3071 3074 3076 3079 3081 3085 3082 3081 3089 3092
3043 3041 3041 3041 3041 3041 3042 3043 3043 3044 3046 3044 3045 3043 3042 3042 3043 3043 3043 3043 3043 3041 3040 3039 3038 3037 3032 3041 3039 3044 3044 3048 3052 3054 3056 3060 3064 3067 3070 3072 3074 3073 3070 3070 3078 3082 3087
3033 3033 3032 3032 3032 3033 3034 3035 3036 3037 3038 3039 3038 3038 3037 3036 3036 3037 3037 3038 3038 3037 3035 3035 3034 3036 3032 3035 3035 3036 3039 3042 3045 3049 3052 3055 3058 3061 3061 3063 3056 3059 3065 3066 3068 3076 3081
3022 3023 3023 3023 3023 3024 3025 3026 3029 3030 3031 3032 3033 3033 3032 3031 3031 3031 3032 3034 3036 3033 3028 3031 3029 3029 3024 3029 3030 3032 3034 3036 3040 3043 3045 3050 3053 3044 3046 3052 3057 3063 3065 3066 3068 3073 3077
3012 3011 3014 3014 3014 3015 3016 3018 3020 3022 3024 3025 3026 3028 3027 3026 3026 3025 3026 3028 3029 3028 3021 3020 3022 3021 3022 3022 3024 3026 3030 3031 3033 3033 3040 3045 3038 3037 3048 3052 3056 3057 3059 3061 3065 3070 3071
2998 3002 3004 3002 3003 3005 3008 3010 3013 3014 3016 3018 3020 3022 3021 3021 3021 3021 3022 3024 3024 3023 3016 3008 3012 3012 3016 3016 3016 3020 3023 3026 3027 3028 3031 3033 3026 3041 3045 3049 3052 3051 3054 3057 3059 3064 3065
2983 2987 2989 2990 2991 2995 2998 3001 3004 3006 3008 3010 3013 3015 3016 3017 3018 3016 3017 3019 3020 3020 3012 3002 3001 2999 3005 3006 3006 3014 3015 3021 3021 3021 3028 3029 3029 3035 3038 3040 3047 3046 3047 3054 3055 3060 3056
2970 2971 2974 2977 2982 2984 2988 2992 2995 2999 3001 3003 3005 3008 3011 3011 3011 3012 3015 3015 3016 3018 3013 2998 2995 2995 2996 3000 3003 3005 3008 3010 3013 3017 3024 3017 3021 3027 3030 3030 3040 3038 3048 3047 3045 3042 3053
2962 2960 2960 2963 2967 2969 2975 2983 2988 2992 2995 2997 2999 3001 3005 3006 3006 3008 3009 3011 3014 3019 3006 2995 2992 2992 2994 2995 2997 2999 3001 3006 3010 3013 3014 3014 3019 3021 3023 3025 3031 3039 3043 3043 3039 3045 3045
2954 2951 2950 2950 2955 2958 2962 2972 2979 2985 2988 2992 2993 2996 2999 3000 3002 3002 3004 3007 3013 3008 2997 2992 2989 2990 2991 2992 2993 2995 2997 3001 3004 3007 3006 3009 3007 3013 3017 3020 3026 3034 3040 3042 3036 3031 3029
2946 2944 2941 2941 2945 2949 2955 2961 2969 2978 2981 2985 2988 2991 2993 2994 2996 2998 3001 3005 3004 2995 2992 2987 2987 2987 2987 2988 2989 2991 2994 2997 3002 3004 3004 3004 3004 3005 3006 3012 3016 3022 3027 3024 3027 3030 3020
2940 2937 2934 2934 2937 2939 2945 2955 2963 2969 2975 2979 2984 2985 2989 2990 2992 2993 2997 2997 2992 2990 2987 2986 2984 2983 2984 2985 2988 2990 2992 2993 2996 2998 2999 2999 2996 2997 3001 3010 3013 3018 3021 3021 3021 3014 3021
2935 2931 2928 2926 2929 2927 2936 2947 2957 2963 2968 2973 2977 2980 2985 2985 2987 2988 2991 2987 2985 2984 2983 2982 2981 2980 2980 2982 2986 2989 2992 2990 2990 2993 2995 2993 2995 2996 2999 3001 3008 3010 3013 3020 3018 3009 3015
2930 2926 2923 2920 2920 2919 2930 2941 2948 2953 2962 2967 2973 2975 2979 2980 2982 2983 2980 2979 2979 2980 2980 2980 2978 2979 2980 2981 2982 2986 2989 2987 2984 2986 2991 2994 3000 2991 2991 2992 2996 3000 3005 3011 3005 3002 3004
2925 2921 2918 2915 2914 2916 2926 2936 2940 2942 2954 2962 2967 2970 2972 2974 2977 2975 2974 2975 2975 2975 2976 2976 2975 2974 2978 2979 2980 2986 2984 2984 2983 2987 2987 2991 2992 2989 2982 2984 2991 2998 3000 2999 3002 3004 3005
2921 2917 2914 2911 2909 2914 2923 2929 2935 2942 2948 2956 2961 2966 2967 2968 2968 2969 2971 2971 2970 2972 2973 2973 2973 2974 2978 2979 2981 2983 2983 2984 2986 2983 2985 2988 2988 2986 2985 2986 2990 2992 2996 2999 3002 3006 3009
2917 2912 2908 2907 2906 2909 2917 2919 2928 2936 2944 2952 2957 2960 2962 2962 2964 2967 2968 2966 2965 2966 2967 2967 2969 2972 2977 2977 2978 2977 2980 2983 2985 2984 2986 2985 2982 2977 2976 2977 2979 2989 2995 2999 3006 3009 3011
2913 2909 2906 2904 2902 2903 2909 2917 2921 2932 2939 2945 2948 2952 2955 2956 2959 2962 2964 2963 2962 2963 2962 2964 2966 2966 2972 2976 2979 2975 2978 2981 2983 2985 2987 2984 2976 2975 2980 2978 2984 2990 2996 3002 3006 3011 3014
2910 2908 2904 2901 2903 2903 2905 2911 2913 2927 2934 2941 2942 2948 2950 2954 2955 2958 2960 2958 2958 2959 2961 2962 2962 2965 2968 2972 2976 2975 2974 2977 2979 2984 2985 2985 2982 2979 2983 2986 2991 2994 2998 3001 3005 3010 3014
2905 2904 2901 2900 2897 2897 2905 2905 2914 2924 2930 2933 2938 2943 2947 2949 2953 2954 2954 2953 2954 2955 2953 2955 2960 2964 2965 2969 2970 2975 2976 2977 2978 2980 2984 2987 2986 2984 2987 2989 2992 2996 2997 3000 3004 3008 3012
2902 2900 2897 2895 2894 2898 2901 2905 2911 2922 2927 2932 2936 2940 2942 2944 2948 2949 2951 2951 2949 2948 2948 2950 2955 2958 2965 2966 2968 2970 2973 2977 2980 2982 2984 2984 2989 2991 2990 2990 2995 2995 2995 2998 3001 3005 3008
2897 2895 2895 2893 2890 2893 2898 2899 2905 2911 2921 2928 2932 2936 2938 2940 2943 2946 2947 2946 2944 2942 2941 2944 2950 2957 2960 2964 2964 2968 2971 2976 2978 2980 2983 2985 2990 2991 2992 2993 2994 2993 2994 2996 2997 3001 3005
2893 2891 2889 2888 2889 2891 2895 2899 2906 2912 2918 2924 2928 2932 2934 2936 2937 2941 2941 2940 2937 2934 2934 2938 2945 2951 2957 2960 2963 2965 2967 2972 2975 2975 2980 2985 2989 2992 2992 2994 2993 2992 2992 2993 2996 2999 3001
2890 2887 2886 2885 2885 2888 2893 2898 2902 2908 2915 2920 2924 2928 2931 2932 2934 2938 2937 2936 2934 2933 2933 2935 2941 2948 2953 2957 2960 2963 2966 2969 2970 2972 2977 2981 2985 2989 2993 2993 2992 2991 2993 2994 2997 3002 2998
2886 2883 2882 2882 2882 2884 2891 2894 2900 2907 2912 2916 2921 2924 2928 2929 2932 2934 2934 2933 2931 2932 2932 2935 2941 2943 2949 2954 2956 2959 2962 2964 2967 2969 2971 2976 2981 2985 2989 2992 2991 2990 2992 2995 2996 2996 2998
2882 2881 2880 2880 2880 2882 2887 2892 2894 2903 2909 2914 2917 2921 2924 2927 2930 2930 2931 2931 2929 2929 2932 2931 2937 2940 2945 2950 2954 2957 2959 2962 2965 2967 2970 2974 2974 2978 2982 2982 2985 2987 2990 2992 2993 2995 2996
Wind_Speed
28 29 29 29 26 24 23 22 20 20 18 18 17 19 18 16 14 14 13 16 18 16 16 18 21 24 30 37 37 39 30 20 18 23 30 26 24 24 33 28 29 37 33 29 27 28 25
29 28 29 30 29 26 24 25 22 20 20 19 17 18 18 18 16 16 15 17 16 14 15 18 20 24 29 37 31 31 37 34 25 16 17 24 23 22 23 23 30 31 37 34 31 28 27
31 30 29 30 30 29 26 24 25 23 21 21 18 17 17 19 17 16 16 17 14 12 13 17 19 24 31 29 29 25 32 29 24 25 15 15 28 22 12 24 25 34 32 32 38 30 29
34 32 32 30 31 31 28 26 25 25 22 22 20 17 17 18 20 18 20 22 18 15 14 16 18 24 34 24 29 26 30 23 21 28 29 21 15 30 27 19 26 28 33 37 37 33 34
36 36 35 33 32 31 30 28 26 25 25 22 22 19 17 18 20 21 21 23 23 22 18 16 20 25 33 22 29 23 26 21 20 21 23 27 29 24 23 31 22 29 32 45 40 28 29
36 38 37 37 34 32 31 30 28 26 24 24 23 21 18 18 20 22 22 23 24 25 22 22 23 23 24 20 14 18 25 24 22 23 22 22 24 30 31 31 38 31 31 33 38 37 26
40 41 37 38 37 34 31 30 29 27 26 25 23 22 19 18 20 22 23 22 24 25 27 21 26 22 27 18 13 16 16 21 26 27 26 21 25 38 42 39 40 29 31 26 35 27 30
40 38 35 37 38 35 33 31 29 27 27 26 23 24 20 18 19 22 24 20 21 25 28 27 26 32 31 29 26 23 19 22 25 31 27 24 36 39 35 34 31 39 31 33 29 27 34
46 43 33 38 36 35 32 32 30 28 27 26 24 24 21 19 19 20 19 19 17 20 28 39 32 34 28 34 32 28 26 25 26 27 30 35 40 30 30 29 31 35 43 34 32 34 30
43 43 49 39 32 35 28 31 30 28 27 26 23 23 23 19 20 18 18 17 18 15 18 27 26 26 34 36 39 32 29 26 29 31 26 32 36 32 28 34 32 37 43 41 37 36 22
37 42 48 50 43 38 31 28 26 24 22 23 21 22 23 19 20 17 15 16 14 6 6 8 11 14 14 33 32 24 30 27 30 28 24 32 31 36 40 40 36 43 41 40 36 20 27
24 29 41 51 55 37 34 30 26 23 22 22 18 21 22 20 17 14 13 11 7 5 8 8 10 9 14 17 24 23 21 28 25 27 29 30 25 28 40 46 40 39 35 35 31 30 12
22 25 29 42 39 45 34 31 29 26 24 21 19 18 18 17 15 12 12 8 5 9 6 9 14 15 17 20 21 21 19 30 26 19 29 29 35 31 30 29 36 38 29 12 9 10 5
26 23 28 29 35 40 34 33 30 26 24 22 17 16 14 17 13 13 11 10 11 11 14 15 12 17 19 21 25 26 15 27 28 24 9 21 18 36 38 36 30 41 43 7 5 4 6
24 23 23 19 24 35 32 29 29 26 24 21 15 18 17 17 12 13 13 18 10 9 20 21 20 13 18 20 6 22 25 23 25 30 16 12 19 11 30 34 25 28 44 36 12 20 6
23 22 20 13 25 29 31 28 29 26 23 20 20 20 19 12 13 17 18 29 21 12 21 19 12 10 11 18 14 18 16 11 23 28 33 28 6 16 22 23 35 20 40 25 16 5 7
23 23 19 22 29 7 31 32 33 28 26 21 20 21 21 16 15 22 30 32 29 28 24 16 11 8 12 15 22 20 12 16 14 20 29 27 26 6 17 27 35 26 24 18 14 5 6
23 21 21 12 32 12 33 33 28 19 21 23 23 22 19 18 19 26 31 28 28 24 13 11 12 14 14 16 21 18 21 12 12 24 30 27 7 8 21 24 24 33 31 23 5 3 8
20 22 23 18 24 10 33 32 36 28 23 26 24 21 14 15 19 25 22 28 31 26 21 12 16 9 10 11 14 21 18 11 8 25 12 12 11 3 5 25 32 30 17 15 3 3 4
21 22 23 21 28 9 23 36 37 32 22 27 25 20 19 20 23 21 24 28 31 25 18 20 16 10 11 14 16 5 19 11 17 19 23 10 17 16 6 10 32 20 21 17 9 3 3
23 23 22 21 23 14 28 27 25 30 26 26 31 26 21 17 20 26 26 23 20 14 11 16 22 21 16 14 14 21 10 12 12 13 26 13 10 13 10 10 25 22 27 23 17 12 3
20 21 21 17 17 11 21 30 26 25 27 28 28 27 22 20 17 17 19 28 27 27 18 18 26 18 15 18 17 21 11 13 13 14 20 17 11 13 10 13 15 17 22 25 21 18 16
20 18 18 17 23 8 29 23 23 24 24 29 29 26 27 16 18 21 25 25 23 21 19 27 26 20 19 15 10 12 14 16 7 14 20 16 6 12 6 7 9 5 17 20 20 21 22
19 18 16 18 17 18 16 25 20 17 26 25 25 24 29 25 19 19 18 22 25 25 24 27 25 26 15 15 18 16 16 18 18 14 15 22 12 4 3 7 1 2 7 21 19 17 18
19 18 15 19 18 27 15 31 28 24 25 22 23 23 27 26 22 15 14 22 29 27 16 28 26 25 18 16 12 11 12 17 19 16 15 16 18 3 1 6 6 6 9 13 25 22 18
20 19 17 18 13 25 19 26 23 20 24 24 23 22 23 24 19 14 17 19 17 12 11 24 34 30 24 19 13 7 6 7 9 7 17 21 24 9 7 2 2 2 3 5 11 18 16
22 18 18 17 18 25 31 24 25 21 22 23 20 20 23 25 23 16 18 21 10 8 10 21 23 29 26 21 15 9 8 10 8 12 21 24 25 23 13 4 4 7 5 3 9 1 4
22 18 18 17 20 28 31 22 25 22 20 21 18 19 22 24 22 15 13 15 11 9 10 20 26 25 31 25 15 10 7 13 9 10 22 22 19 17 17 9 9 7 12 7 6 4 2
21 18 16 16 21 28 30 27 29 27 23 19 18 17 20 22 18 11 16 16 10 6 14 10 18 25 21 23 17 11 11 17 11 10 13 20 23 17 18 13 6 11 7 8 8 10 11
Wind_Direction
279 280 278 274 273 275 277 275 276 281 283 284 283 279 275 280 284 293 287 279 271 267 264 262 263 260 258 254 247 252 258 258 266 250 244 241 239 229 230 227 223 226 231 239 247 237 235
280 277 276 277 273 268 271 275 274 274 278 279 279 277 273 275 284 296 295 292 287 287 275 269 266 264 261 257 262 248 252 252 254 254 233 226 230 225 230 238 221 231 231 230 233 244 249
277 277 274 273 274 271 265 266 271 272 273 275 275 276 269 269 275 290 288 303 300 295 280 273 269 265 261 263 258 248 251 249 235 237 215 240 227 209 223 235 230 233 232 237 235 233 242
275 275 275 272 271 270 267 264 265 270 271 275 274 272 269 264 268 275 280 287 303 306 300 276 264 261 263 268 258 253 251 254 243 243 241 220 211 222 215 225 228 229 231 230 227 229 228
277 274 272 270 268 267 266 264 259 264 270 270 273 272 270 265 263 266 275 278 292 298 301 279 263 259 266 272 258 254 254 247 233 234 238 229 228 229 229 226 240 226 227 229 228 215 225
279 276 273 270 267 264 264 261 260 259 263 269 269 271 271 269 265 265 270 277 286 291 279 284 265 265 266 272 258 244 241 243 238 229 230 232 226 229 229 218 224 220 227 228 233 222 220
270 271 275 270 267 263 261 257 257 256 260 264 266 268 270 269 267 267 267 274 282 282 281 288 270 268 264 264 258 251 245 235 235 236 231 221 223 221 221 220 229 227 235 242 228 234 218
261 259 276 270 267 263 259 257 252 252 255 261 264 267 267 270 267 266 268 275 283 285 285 276 270 264 253 259 257 250 239 230 228 231 226 212 229 234 230 228 236 229 232 235 237 224 220
266 259 265 268 260 260 259 256 251 248 251 257 261 264 264 269 271 274 275 277 278 294 274 275 278 263 262 248 251 250 244 246 243 236 221 217 238 236 230 233 233 239 237 233 227 223 226
269 254 249 256 258 258 250 249 248 245 248 251 257 259 261 268 272 274 274 270 276 296 270 274 274 262 240 244 250 245 240 238 232 234 230 233 241 238 240 231 222 237 233 236 223 226 199
286 258 253 252 254 248 242 243 237 237 240 247 250 253 259 264 273 276 269 266 265 280 275 265 241 244 234 232 240 246 249 220 221 226 218 231 234 226 232 231 223 232 235 235 236 228 200
306 284 257 249 248 241 226 229 228 227 236 244 250 250 252 262 271 276 265 256 258 225 247 237 246 252 230 241 236 239 209 220 234 228 227 240 234 235 230 236 219 223 242 223 239 227 204
287 295 280 253 256 256 218 218 219 218 229 238 246 250 257 258 264 261 252 235 211 225 246 248 252 253 256 242 233 211 193 211 213 217 228 239 233 227 233 230 226 219 215 237 235 195 210
288 300 298 268 252 253 218 211 211 212 222 234 238 255 259 267 267 252 242 200 228 257 235 251 258 269 237 233 232 209 216 220 227 223 233 232 241 224 231 229 218 207 205 219 183 190 135
287 304 302 281 246 250 208 208 199 203 220 230 222 240 260 269 264 259 233 211 233 256 256 262 264 247 234 233 212 204 222 228 228 224 232 245 221 215 213 221 212 212 210 211 283 162 115
279 301 313 286 233 198 193 196 195 201 218 218 220 236 253 252 255 253 234 231 246 274 269 271 219 227 217 210 197 203 212 251 258 239 223 241 301 233 249 209 214 219 223 218 236 194 146
296 296 318 288 228 222 183 188 189 204 213 214 220 235 248 261 240 236 231 239 254 265 264 271 255 239 223 218 213 209 206 251 260 200 220 239 251 283 217 208 206 202 205 200 214 177 126
291 286 327 314 237 299 182 189 205 197 203 206 215 225 253 254 212 224 237 251 264 267 263 269 219 240 241 222 205 212 229 255 216 196 215 229 271 250 219 215 207 193 197 192 274 46 62
288 294 327 318 275 180 185 204 198 199 211 204 212 224 245 234 223 236 254 257 262 269 268 243 224 234 236 230 208 225 246 239 225 214 221 226 213 219 183 173 175 199 190 179 149 2 144
298 303 338 339 256 142 195 204 196 197 214 201 210 207 222 229 237 248 257 262 266 281 271 241 223 227 225 225 229 255 230 222 222 245 227 205 248 256 278 184 181 187 191 193 216 254 94
296 307 327 334 270 158 193 197 185 195 215 198 208 226 231 221 238 240 249 255 271 281 242 218 212 221 213 217 218 235 209 201 230 228 221 243 277 331 42 149 179 173 178 201 207 207 194
293 299 324 320 264 186 180 203 183 186 205 203 222 222 227 228 246 259 256 258 269 276 261 225 220 224 206 218 202 209 226 194 206 201 219 251 304 17 72 108 147 171 199 205 200 197 204
294 297 314 322 296 210 191 191 165 184 202 206 219 223 233 230 242 252 259 262 278 277 287 212 220 222 216 228 217 206 231 195 257 220 211 223 283 0 54 118 127 186 205 216 225 224 213
290 286 316 325 285 228 174 182 155 185 202 218 219 228 241 243 243 246 265 284 279 278 281 215 211 224 208 216 227 216 179 189 208 198 227 224 216 1 77 121 131 191 191 220 228 228 225
306 299 300 318 295 203 172 179 169 186 200 219 222 227 240 246 254 263 251 265 266 277 255 202 207 213 188 207 186 179 184 183 202 205 206 218 193 191 140 246 298 223 220 211 219 232 231
310 292 285 308 279 246 211 191 186 193 204 217 224 227 239 243 260 263 256 272 302 270 238 215 203 212 214 187 184 179 159 195 196 213 195 196 210 203 193 243 241 183 8 218 221 232 232
314 290 285 299 260 236 220 195 185 191 207 218 231 221 234 242 257 256 256 288 322 299 228 193 182 206 211 185 185 172 186 191 186 181 189 190 197 207 219 249 248 256 284 151 168 157 188
316 297 283 287 252 225 212 192 177 197 207 218 228 221 229 238 251 261 260 276 306 250 247 198 194 196 195 181 187 168 192 192 214 206 190 186 181 196 199 224 262 239 237 207 192 148 150
312 300 282 293 287 215 203 199 187 196 209 220 227 219 228 234 244 269 256 274 292 229 240 206 186 191 186 187 193 182 172 178 186 177 197 199 194 194 201 220 187 231 236 230 246 277 281